| time (UTC) | temp C | wind direction | speed KPH | gust KPH | rain 1hr cm | rain 24hr cm | rain mn cm | humidity % | barometer mb |
| 20260504081714 | 15 | 185 | 1.6 | 1.6 | 0.00 | 0.00 | 0.00 | 58 | 1010.4 |
| 20260504081210 | 15 | 181 | 1.6 | 3.2 | 0.00 | 0.00 | 0.00 | 58 | 1010.5 |
| 20260504080707 | 15 | 179 | 0.0 | 1.6 | 0.00 | 0.00 | 0.00 | 57 | 1010.3 |
| 20260504080203 | 15 | 176 | 1.6 | 1.6 | 0.00 | 0.00 | 0.00 | 57 | 1010.6 |
| 20260504070131 | 15 | 174 | 0.0 | 0.0 | 0.00 | 0.00 | 0.00 | 57 | 1010.6 |
| 20260504050520 | 15 | 174 | 1.6 | 1.6 | 0.00 | 0.00 | 0.00 | 56 | 1011.4 |
| 20260504050017 | 15 | 173 | 0.0 | 1.6 | 0.00 | 0.00 | 0.00 | 56 | 1011.6 |
| 20260504045513 | 15 | 185 | 1.6 | 1.6 | 0.00 | 0.00 | 0.00 | 56 | 1011.6 |
| 20260504045008 | 15 | 165 | 1.6 | 1.6 | 0.00 | 0.00 | 0.00 | 56 | 1011.6 |
| 20260504044506 | 15 | 179 | 3.2 | 3.2 | 0.00 | 0.00 | 0.00 | 55 | 1011.8 |
| 20260504044003 | 15 | 199 | 3.2 | 4.8 | 0.00 | 0.00 | 0.00 | 56 | 1011.8 |
| 20260504043500 | 15 | 189 | 0.0 | 1.6 | 0.00 | 0.00 | 0.00 | 55 | 1011.9 |
| 20260504042958 | 15 | 208 | 3.2 | 4.8 | 0.00 | 0.00 | 0.00 | 54 | 1011.8 |
| 20260504042454 | 15 | 184 | 9.7 | 12.9 | 0.00 | 0.00 | 0.00 | 53 | 1011.8 |
| 20260504041951 | 15 | 195 | 1.6 | 3.2 | 0.00 | 0.00 | 0.00 | 54 | 1011.9 |
| 20260504041447 | 15 | 182 | 4.8 | 4.8 | 0.00 | 0.00 | 0.00 | 56 | 1012.1 |
| 20260504040943 | 15 | 204 | 0.0 | 1.6 | 0.00 | 0.00 | 0.00 | 55 | 1012.4 |
| 20260504040441 | 15 | 173 | 0.0 | 1.6 | 0.00 | 0.00 | 0.00 | 57 | 1012.5 |
| 20260504035936 | 15 | 182 | 3.2 | 3.2 | 0.00 | 0.00 | 0.00 | 57 | 1012.3 |
| 20260504035434 | 15 | 180 | 1.6 | 1.6 | 0.00 | 0.00 | 0.00 | 57 | 1012.5 |
| 20260504034931 | 15 | 163 | 3.2 | 4.8 | 0.00 | 0.00 | 0.00 | 56 | 1012.5 |
| 20260504034429 | 15 | 180 | 3.2 | 3.2 | 0.00 | 0.00 | 0.00 | 56 | 1012.3 |
| 20260504033925 | 15 | 184 | 1.6 | 3.2 | 0.00 | 0.00 | 0.00 | 56 | 1012.4 |
| 20260504033423 | 15 | 154 | 4.8 | 6.4 | 0.00 | 0.00 | 0.00 | 55 | 1012.3 |
| 20260504032920 | 15 | 168 | 1.6 | 3.2 | 0.00 | 0.00 | 0.00 | 56 | 1012.5 |
| 20260504032417 | 15 | 207 | 4.8 | 6.4 | 0.00 | 0.00 | 0.00 | 55 | 1012.4 |
| 20260504031914 | 15 | 176 | 6.4 | 11.3 | 0.00 | 0.00 | 0.00 | 54 | 1012.7 |
| 20260504031411 | 15 | 188 | 4.8 | 4.8 | 0.00 | 0.00 | 0.00 | 54 | 1012.9 |
| 20260504030907 | 15 | 183 | 3.2 | 4.8 | 0.00 | 0.00 | 0.00 | 54 | 1012.8 |
| 20260504030404 | 15 | 173 | 3.2 | 4.8 | 0.00 | 0.00 | 0.00 | 54 | 1013.0 |
| 20260504025900 | 15 | 159 | 9.7 | 11.3 | 0.00 | 0.00 | 0.00 | 53 | 1013.2 |
| 20260504025357 | 15 | 177 | 1.6 | 3.2 | 0.00 | 0.00 | 0.00 | 54 | 1013.1 |
| 20260504024854 | 16 | 165 | 1.6 | 3.2 | 0.00 | 0.00 | 0.00 | 54 | 1013.1 |
| 20260504024350 | 15 | 158 | 1.6 | 1.6 | 0.00 | 0.00 | 0.00 | 53 | 1013.1 |
| 20260504023848 | 16 | 174 | 3.2 | 3.2 | 0.00 | 0.00 | 0.00 | 53 | 1013.0 |
| 20260504023344 | 16 | 178 | 4.8 | 4.8 | 0.00 | 0.00 | 0.00 | 52 | 1013.0 |
| 20260504022840 | 16 | 172 | 1.6 | 1.6 | 0.00 | 0.00 | 0.00 | 53 | 1013.0 |
| 20260504022337 | 16 | 182 | 1.6 | 1.6 | 0.00 | 0.00 | 0.00 | 52 | 1013.2 |
| 20260504021833 | 16 | 183 | 1.6 | 1.6 | 0.00 | 0.00 | 0.00 | 52 | 1013.3 |
| 20260504021331 | 16 | 193 | 1.6 | 3.2 | 0.00 | 0.00 | 0.00 | 52 | 1013.2 |
| 20260504020828 | 16 | 200 | 3.2 | 3.2 | 0.00 | 0.00 | 0.00 | 52 | 1013.0 |
| 20260504020324 | 16 | 180 | 1.6 | 1.6 | 0.00 | 0.00 | 0.00 | 51 | 1013.0 |
| 20260504015820 | 16 | 209 | 3.2 | 3.2 | 0.00 | 0.00 | 0.00 | 51 | 1013.1 |
| 20260504015317 | 16 | 183 | 1.6 | 1.6 | 0.00 | 0.00 | 0.00 | 52 | 1013.1 |
| 20260504014813 | 16 | 178 | 1.6 | 1.6 | 0.00 | 0.00 | 0.00 | 53 | 1013.1 |
| 20260504014309 | 16 | 177 | 1.6 | 1.6 | 0.00 | 0.00 | 0.00 | 54 | 1013.2 |
| 20260504013807 | 15 | 179 | 1.6 | 1.6 | 0.00 | 0.00 | 0.00 | 55 | 1013.2 |
| 20260504013305 | 16 | 181 | 0.0 | 0.0 | 0.00 | 0.00 | 0.00 | 54 | 1013.2 |
| 20260504012801 | 16 | 182 | 0.0 | 1.6 | 0.00 | 0.00 | 0.00 | 54 | 1013.3 |
| 20260504012259 | 16 | 182 | 0.0 | 0.0 | 0.00 | 0.00 | 0.00 | 52 | 1013.4 |
| 20260504011755 | 16 | 183 | 1.6 | 1.6 | 0.00 | 0.00 | 0.00 | 52 | 1013.3 |
| 20260504011252 | 16 | 182 | 0.0 | 0.0 | 0.00 | 0.00 | 0.00 | 51 | 1013.2 |
| 20260504010748 | 16 | 183 | 0.0 | 0.0 | 0.00 | 0.00 | 0.00 | 49 | 1013.0 |
| 20260504010244 | 16 | 182 | 0.0 | 0.0 | 0.00 | 0.00 | 0.00 | 49 | 1013.2 |
| 20260504005741 | 17 | 175 | 0.0 | 0.0 | 0.00 | 0.00 | 0.00 | 48 | 1013.1 |
| 20260504005238 | 17 | 182 | 1.6 | 1.6 | 0.00 | 0.00 | 0.00 | 48 | 1013.2 |
| 20260504004736 | 17 | 177 | 0.0 | 0.0 | 0.00 | 0.00 | 0.00 | 46 | 1013.2 |
| 20260504004232 | 17 | 167 | 0.0 | 0.0 | 0.00 | 0.00 | 0.00 | 46 | 1013.1 |
| 20260504003729 | 17 | 178 | 0.0 | 0.0 | 0.00 | 0.00 | 0.00 | 46 | 1013.2 |
| 20260504003226 | 17 | 164 | 1.6 | 1.6 | 0.00 | 0.00 | 0.00 | 44 | 1012.8 |
| 20260504002723 | 17 | 202 | 1.6 | 1.6 | 0.00 | 0.00 | 0.00 | 44 | 1012.7 |
| 20260504002220 | 18 | 184 | 3.2 | 3.2 | 0.00 | 0.00 | 0.00 | 44 | 1012.8 |
| 20260504001718 | 18 | 191 | 3.2 | 4.8 | 0.00 | 0.00 | 0.00 | 43 | 1012.6 |
| 20260504001214 | 18 | 202 | 0.0 | 1.6 | 0.00 | 0.00 | 0.00 | 44 | 1012.8 |
| 20260504000711 | 18 | 163 | 1.6 | 9.7 | 0.00 | 0.00 | 0.00 | 43 | 1012.4 |
| 20260504000208 | 18 | 195 | 0.0 | 0.0 | 0.00 | 0.00 | 0.00 | 44 | 1012.6 |
| 20260503235706 | 18 | 206 | 0.0 | 1.6 | 0.00 | 0.00 | 0.00 | 43 | 1012.5 |
| 20260503235203 | 18 | 192 | 1.6 | 3.2 | 0.00 | 0.00 | 0.00 | 44 | 1012.5 |
| 20260503234700 | 18 | 193 | 0.0 | 1.6 | 0.00 | 0.00 | 0.00 | 43 | 1012.5 |
| 20260503234159 | 18 | 178 | 6.4 | 12.9 | 0.00 | 0.00 | 0.00 | 42 | 1012.4 |
| 20260503233655 | 18 | 204 | 3.2 | 3.2 | 0.00 | 0.00 | 0.00 | 42 | 1012.7 |
| 20260503233151 | 18 | 183 | 3.2 | 6.4 | 0.00 | 0.00 | 0.00 | 42 | 1012.6 |
| 20260503232648 | 18 | 170 | 6.4 | 9.7 | 0.00 | 0.00 | 0.00 | 41 | 1012.7 |
| 20260503232145 | 19 | 182 | 4.8 | 6.4 | 0.00 | 0.00 | 0.00 | 40 | 1012.8 |
| 20260503231644 | 19 | 154 | 1.6 | 1.6 | 0.00 | 0.00 | 0.00 | 41 | 1012.7 |
| 20260503231139 | 18 | 172 | 1.6 | 1.6 | 0.00 | 0.00 | 0.00 | 42 | 1012.8 |
| 20260503230636 | 19 | 203 | 1.6 | 3.2 | 0.00 | 0.00 | 0.00 | 41 | 1012.9 |
| 20260503230134 | 19 | 178 | 3.2 | 6.4 | 0.00 | 0.00 | 0.00 | 40 | 1013.1 |
| 20260503225631 | 19 | 203 | 3.2 | 3.2 | 0.00 | 0.00 | 0.00 | 41 | 1012.9 |
| 20260503225131 | 19 | 172 | 4.8 | 4.8 | 0.00 | 0.00 | 0.00 | 41 | 1013.2 |
| 20260503224628 | 19 | 199 | 1.6 | 3.2 | 0.00 | 0.00 | 0.00 | 40 | 1013.1 |
| 20260503224126 | 19 | 198 | 4.8 | 6.4 | 0.00 | 0.00 | 0.00 | 41 | 1013.1 |
| 20260503223624 | 19 | 192 | 3.2 | 4.8 | 0.00 | 0.00 | 0.00 | 39 | 1013.4 |
| 20260503223119 | 19 | 147 | 9.7 | 11.3 | 0.00 | 0.00 | 0.00 | 41 | 1013.5 |
| 20260503222617 | 19 | 196 | 1.6 | 1.6 | 0.00 | 0.00 | 0.00 | 42 | 1013.4 |
| 20260503222115 | 19 | 201 | 1.6 | 3.2 | 0.00 | 0.00 | 0.00 | 40 | 1013.4 |
| 20260503221613 | 19 | 242 | 3.2 | 4.8 | 0.00 | 0.00 | 0.00 | 41 | 1013.8 |
| 20260503221110 | 19 | 201 | 1.6 | 3.2 | 0.00 | 0.00 | 0.00 | 41 | 1013.8 |
| 20260503220607 | 19 | 192 | 1.6 | 3.2 | 0.00 | 0.00 | 0.00 | 41 | 1013.7 |
| 20260503220104 | 19 | 216 | 3.2 | 3.2 | 0.00 | 0.00 | 0.00 | 40 | 1013.8 |
| 20260503215600 | 19 | 221 | 4.8 | 6.4 | 0.00 | 0.00 | 0.00 | 41 | 1013.9 |
| 20260503215057 | 20 | 194 | 1.6 | 3.2 | 0.00 | 0.00 | 0.00 | 41 | 1014.0 |
| 20260503214555 | 19 | 229 | 1.6 | 3.2 | 0.00 | 0.00 | 0.00 | 39 | 1014.1 |
| 20260503214052 | 19 | 167 | 1.6 | 1.6 | 0.00 | 0.00 | 0.00 | 41 | 1014.1 |
| 20260503213550 | 19 | 199 | 3.2 | 3.2 | 0.00 | 0.00 | 0.00 | 42 | 1014.3 |
| 20260503213047 | 19 | 196 | 0.0 | 1.6 | 0.00 | 0.00 | 0.00 | 40 | 1014.2 |
| 20260503212544 | 19 | 209 | 6.4 | 12.9 | 0.00 | 0.00 | 0.00 | 41 | 1014.6 |
| 20260503212042 | 19 | 209 | 1.6 | 3.2 | 0.00 | 0.00 | 0.00 | 41 | 1014.6 |
| 20260503211538 | 19 | 134 | 11.3 | 14.5 | 0.00 | 0.00 | 0.00 | 41 | 1014.7 |
| 20260503211034 | 19 | 206 | 3.2 | 3.2 | 0.00 | 0.00 | 0.00 | 41 | 1014.9 |
| 20260503210531 | 19 | 256 | 6.4 | 11.3 | 0.00 | 0.00 | 0.00 | 40 | 1015.0 |
| 20260503210027 | 19 | 239 | 4.8 | 6.4 | 0.00 | 0.00 | 0.00 | 41 | 1015.1 |
| 20260503205523 | 19 | 189 | 1.6 | 3.2 | 0.00 | 0.00 | 0.00 | 42 | 1015.3 |
| 20260503205020 | 19 | 185 | 6.4 | 6.4 | 0.00 | 0.00 | 0.00 | 40 | 1015.4 |
| 20260503204517 | 19 | 234 | 3.2 | 4.8 | 0.00 | 0.00 | 0.00 | 42 | 1015.5 |
| 20260503204014 | 19 | 225 | 1.6 | 3.2 | 0.00 | 0.00 | 0.00 | 43 | 1015.6 |
| 20260503203511 | 19 | 175 | 0.0 | 1.6 | 0.00 | 0.00 | 0.00 | 43 | 1015.4 |
| 20260503203008 | 19 | 203 | 1.6 | 1.6 | 0.00 | 0.00 | 0.00 | 42 | 1015.8 |
| 20260503202506 | 19 | 179 | 14.5 | 16.1 | 0.00 | 0.00 | 0.00 | 42 | 1016.1 |
| 20260503202004 | 19 | 155 | 1.6 | 1.6 | 0.00 | 0.00 | 0.00 | 44 | 1015.9 |
| 20260503201501 | 19 | 79 | 3.2 | 3.2 | 0.00 | 0.00 | 0.00 | 42 | 1016.3 |
| 20260503200959 | 19 | 204 | 3.2 | 3.2 | 0.00 | 0.00 | 0.00 | 44 | 1016.4 |
| 20260503200455 | 20 | 208 | 9.7 | 17.7 | 0.00 | 0.00 | 0.00 | 42 | 1016.5 |
| 20260503195951 | 19 | 157 | 3.2 | 4.8 | 0.00 | 0.00 | 0.00 | 42 | 1016.7 |
| 20260503195449 | 19 | 241 | 3.2 | 3.2 | 0.00 | 0.00 | 0.00 | 41 | 1016.8 |
| 20260503194945 | 19 | 268 | 3.2 | 6.4 | 0.00 | 0.00 | 0.00 | 44 | 1016.8 |
| 20260503194443 | 19 | 174 | 0.0 | 1.6 | 0.00 | 0.00 | 0.00 | 44 | 1016.7 |
| 20260503193937 | 19 | 137 | 3.2 | 3.2 | 0.00 | 0.00 | 0.00 | 41 | 1016.9 |
| 20260503193433 | 18 | 214 | 3.2 | 3.2 | 0.00 | 0.00 | 0.00 | 44 | 1016.9 |
| 20260503192929 | 19 | 185 | 3.2 | 3.2 | 0.00 | 0.00 | 0.00 | 43 | 1017.1 |
| 20260503192426 | 18 | 202 | 1.6 | 3.2 | 0.00 | 0.00 | 0.00 | 44 | 1017.3 |
| 20260503191921 | 19 | 175 | 4.8 | 6.4 | 0.00 | 0.00 | 0.00 | 44 | 1017.2 |
| 20260503191419 | 19 | 219 | 3.2 | 3.2 | 0.00 | 0.00 | 0.00 | 44 | 1017.2 |
| 20260503190915 | 19 | 138 | 8.0 | 9.7 | 0.00 | 0.00 | 0.00 | 45 | 1017.4 |
| 20260503190413 | 18 | 207 | 0.0 | 1.6 | 0.00 | 0.00 | 0.00 | 46 | 1017.4 |
| 20260503185909 | 18 | 222 | 6.4 | 14.5 | 0.00 | 0.00 | 0.00 | 44 | 1017.6 |
| 20260503185406 | 18 | 229 | 3.2 | 4.8 | 0.00 | 0.00 | 0.00 | 43 | 1017.7 |
| 20260503184905 | 18 | 201 | 4.8 | 4.8 | 0.00 | 0.00 | 0.00 | 43 | 1018.1 |
| 20260503184402 | 18 | 217 | 1.6 | 1.6 | 0.00 | 0.00 | 0.00 | 47 | 1018.2 |
| 20260503183858 | 18 | 175 | 3.2 | 4.8 | 0.00 | 0.00 | 0.00 | 46 | 1018.1 |
| 20260503183355 | 18 | 154 | 3.2 | 3.2 | 0.00 | 0.00 | 0.00 | 45 | 1018.5 |
| 20260503182852 | 18 | 221 | 1.6 | 3.2 | 0.00 | 0.00 | 0.00 | 44 | 1018.4 |
| 20260503182351 | 18 | 207 | 8.0 | 12.9 | 0.00 | 0.00 | 0.00 | 45 | 1018.3 |
| 20260503181848 | 18 | 158 | 1.6 | 4.8 | 0.00 | 0.00 | 0.00 | 44 | 1018.4 |
| 20260503181345 | 18 | 214 | 3.2 | 4.8 | 0.00 | 0.00 | 0.00 | 44 | 1018.7 |
| 20260503180841 | 18 | 224 | 8.0 | 11.3 | 0.00 | 0.00 | 0.00 | 43 | 1018.7 |
| 20260503180339 | 18 | 208 | 6.4 | 11.3 | 0.00 | 0.00 | 0.00 | 46 | 1018.8 |
| 20260503175835 | 17 | 224 | 1.6 | 1.6 | 0.00 | 0.00 | 0.00 | 43 | 1018.9 |
| 20260503175334 | 17 | 216 | 3.2 | 3.2 | 0.00 | 0.00 | 0.00 | 44 | 1019.0 |
| 20260503174834 | 17 | 172 | 1.6 | 3.2 | 0.00 | 0.00 | 0.00 | 44 | 1019.2 |
| 20260503174333 | 17 | 323 | 3.2 | 4.8 | 0.00 | 0.00 | 0.00 | 46 | 1019.0 |
| 20260503173828 | 17 | 189 | 1.6 | 3.2 | 0.00 | 0.00 | 0.00 | 44 | 1019.3 |
| 20260503173324 | 17 | 132 | 4.8 | 6.4 | 0.00 | 0.00 | 0.00 | 46 | 1019.4 |
| 20260503172821 | 17 | 164 | 0.0 | 0.0 | 0.00 | 0.00 | 0.00 | 44 | 1019.7 |
| 20260503172319 | 17 | 143 | 6.4 | 12.9 | 0.00 | 0.00 | 0.00 | 43 | 1019.6 |
| 20260503171815 | 17 | 214 | 8.0 | 11.3 | 0.00 | 0.00 | 0.00 | 44 | 1019.8 |
| 20260503171312 | 17 | 208 | 1.6 | 1.6 | 0.00 | 0.00 | 0.00 | 42 | 1019.8 |
| 20260503170809 | 17 | 170 | 3.2 | 3.2 | 0.00 | 0.00 | 0.00 | 44 | 1019.9 |
| 20260503170306 | 17 | 153 | 8.0 | 12.9 | 0.00 | 0.00 | 0.00 | 43 | 1020.1 |
| 20260503150658 | 15 | 182 | 8.0 | 11.3 | 0.00 | 0.00 | 0.00 | 47 | 1020.8 |
| 20260503150154 | 15 | 193 | 1.6 | 3.2 | 0.00 | 0.00 | 0.00 | 51 | 1020.8 |
| 20260503140118 | 12 | 185 | 9.7 | 12.9 | 0.00 | 0.00 | 0.00 | 55 | 1020.9 |
| 20260503131048 | 10 | 198 | 0.0 | 0.0 | 0.00 | 0.00 | 0.00 | 73 | 1021.0 |
| 20260503130545 | 10 | 165 | 1.6 | 3.2 | 0.00 | 0.00 | 0.00 | 74 | 1021.0 |
| 20260503110435 | 4 | 325 | 0.0 | 0.0 | 0.00 | 0.00 | 0.00 | 98 | 1020.3 |
| 20260503090326 | 5 | 325 | 0.0 | 0.0 | 0.00 | 0.00 | 0.00 | 98 | 1020.4 |